TimeEST,TemperatureF,Dew PointF,Humidity,Sea Level PressureIn,VisibilityMPH,Wind Direction,Wind SpeedMPH,Gust SpeedMPH,PrecipitationIn,Events,Conditions,WindDirDegrees,DateUTC
12:56 AM,37.9,28.0,68,30.14,10.0,NW,4.6,-,N/A,,Overcast,320,2013-01-07 05:56:00
1:56 AM,37.9,28.9,70,30.16,10.0,NW,4.6,-,N/A,,Overcast,310,2013-01-07 06:56:00
2:56 AM,39.0,28.9,67,30.18,10.0,NW,8.1,-,N/A,,Overcast,310,2013-01-07 07:56:00
3:56 AM,39.0,28.0,65,30.20,10.0,WNW,8.1,-,N/A,,Overcast,300,2013-01-07 08:56:00
4:56 AM,37.9,28.0,68,30.22,10.0,WNW,8.1,-,N/A,,Overcast,300,2013-01-07 09:56:00
5:56 AM,37.9,28.0,68,30.25,10.0,WNW,8.1,-,N/A,,Overcast,300,2013-01-07 10:56:00
6:56 AM,37.9,28.0,68,30.29,10.0,WNW,11.5,-,N/A,,Overcast,290,2013-01-07 11:56:00
7:56 AM,37.9,28.0,68,30.31,10.0,WNW,8.1,-,N/A,,Overcast,300,2013-01-07 12:56:00
8:56 AM,39.0,28.0,65,30.35,10.0,NW,6.9,-,N/A,,Overcast,310,2013-01-07 13:56:00
9:56 AM,39.2,28.4,65,30.37,10.0,West,11.5,-,N/A,,Overcast,280,2013-01-07 14:56:00
10:56 AM,39.9,28.0,63,30.40,10.0,WNW,12.7,-,N/A,,Mostly Cloudy,290,2013-01-07 15:56:00
11:56 AM,41.0,27.0,57,30.40,10.0,WNW,15.0,-,N/A,,Overcast,290,2013-01-07 16:56:00
12:56 PM,41.0,26.1,55,30.39,10.0,NW,13.8,-,N/A,,Mostly Cloudy,310,2013-01-07 17:56:00
1:56 PM,41.0,26.1,55,30.39,10.0,WNW,10.4,-,N/A,,Overcast,300,2013-01-07 18:56:00
2:56 PM,41.0,25.0,53,30.40,10.0,NW,8.1,-,N/A,,Overcast,320,2013-01-07 19:56:00
3:56 PM,39.9,26.1,58,30.40,10.0,WSW,6.9,-,N/A,,Mostly Cloudy,250,2013-01-07 20:56:00
4:56 PM,36.0,27.0,70,30.41,10.0,West,3.5,-,N/A,,Partly Cloudy,260,2013-01-07 21:56:00
5:56 PM,34.0,27.0,75,30.41,10.0,Calm,Calm,-,N/A,,Clear,0,2013-01-07 22:56:00
6:56 PM,30.0,23.0,75,30.43,9.0,Calm,Calm,-,N/A,,Clear,0,2013-01-07 23:56:00
7:56 PM,28.9,23.0,78,30.42,8.0,Calm,Calm,-,N/A,,Clear,0,2013-01-08 00:56:00
8:56 PM,28.0,23.0,81,30.41,8.0,East,3.5,-,N/A,,Clear,100,2013-01-08 01:56:00
9:56 PM,28.0,23.0,81,30.40,7.0,Calm,Calm,-,N/A,,Clear,0,2013-01-08 02:56:00
10:56 PM,26.1,23.0,88,30.41,6.0,Calm,Calm,-,N/A,,Clear,0,2013-01-08 03:56:00
11:56 PM,26.1,21.9,84,30.40,5.0,Calm,Calm,-,N/A,,Clear,0,2013-01-08 04:56:00